timestamp,surface_pressure_avg,surface_temp_avg,battery_voltage,lat,long
2020-10-02 00:09:01+00:00,363.9146,15.2,12.81,47.84626,-54.09684
2020-10-02 00:19:01+00:00,360.4896,15.21,12.81,47.84626,-54.09684
2020-10-02 00:29:01+00:00,359.1146,15.34,12.81,47.84626,-54.09684
2020-10-02 00:39:01+00:00,356.2029,15.3,12.81,47.84626,-54.09684
2020-10-02 00:49:01+00:00,350.1313,15.4,12.81,47.84626,-54.09684
2020-10-02 00:59:01+00:00,348.3931,15.4,12.81,47.84626,-54.09684
2020-10-02 01:09:01+00:00,343.9163,15.45,12.81,47.84626,-54.09684
2020-10-02 01:19:01+00:00,337.6546,15.5,12.73,47.84626,-54.09684
2020-10-02 01:29:01+00:00,328.0763,15.5,12.73,47.84626,-54.09684
2020-10-02 01:39:01+00:00,326.3496,15.59,12.73,47.84626,-54.09684
2020-10-02 01:49:01+00:00,320.798,15.69,12.73,47.84626,-54.09684
2020-10-02 01:59:01+00:00,313.2313,15.8,12.73,47.84626,-54.09684
2020-10-02 02:09:01+00:00,309.1113,15.89,12.73,47.84626,-54.09684
2020-10-02 02:19:01+00:00,306.218,15.79,12.73,47.84626,-54.09684
2020-10-02 02:29:01+00:00,296.3331,15.59,12.73,47.84626,-54.09684
2020-10-02 02:39:01+00:00,288.5663,15.6,12.73,47.84626,-54.09684
2020-10-02 02:49:01+00:00,281.993,15.56,12.73,47.84626,-54.09684
2020-10-02 02:59:01+00:00,272.718,15.6,12.73,47.84626,-54.09684
2020-10-02 03:09:01+00:00,263.0364,15.67,12.73,47.84626,-54.09684
2020-10-02 03:19:01+00:00,257.5081,15.6,12.65,47.84626,-54.09684
2020-10-02 03:29:01+00:00,253.7848,15.67,12.65,47.84626,-54.09684
2020-10-02 03:39:01+00:00,244.2948,15.78,12.65,47.84626,-54.09684
2020-10-02 03:49:01+00:00,236.5514,15.89,12.65,47.84626,-54.09684
2020-10-02 03:59:01+00:00,231.5131,15.9,12.65,47.84626,-54.09684
2020-10-02 04:09:01+00:00,226.3048,15.92,12.65,47.84626,-54.09684
2020-10-02 04:19:01+00:00,218.3497,15.95,12.65,47.84626,-54.09684
2020-10-02 04:29:01+00:00,213.0782,16.0,12.65,47.84626,-54.09684
2020-10-02 04:39:01+00:00,211.7914,16.0,12.65,47.84626,-54.09684
2020-10-02 04:49:01+00:00,200.9315,16.0,12.65,47.84626,-54.09684
2020-10-02 04:59:01+00:00,194.0681,16.02,12.65,47.84626,-54.09684
2020-10-02 05:09:01+00:00,196.6914,16.01,12.65,47.84626,-54.09684
2020-10-02 05:19:01+00:00,194.8414,16.01,12.65,47.84626,-54.09684
2020-10-02 05:29:01+00:00,187.5881,16.1,12.65,47.84626,-54.09684
2020-10-02 05:39:01+00:00,186.0698,16.1,12.65,47.84626,-54.09684
2020-10-02 05:49:01+00:00,189.7998,16.1,12.65,47.84626,-54.09684
2020-10-02 05:59:01+00:00,193.2531,16.1,12.65,47.84626,-54.09684
2020-10-02 06:09:01+00:00,192.4198,16.1,12.65,47.84626,-54.09684
2020-10-02 06:19:01+00:00,193.8431,16.1,12.65,47.84626,-54.09684
2020-10-02 06:29:01+00:00,197.8948,16.1,12.65,47.84626,-54.09684
2020-10-02 06:39:01+00:00,202.4681,15.96,12.65,47.84626,-54.09684
2020-10-02 06:49:01+00:00,204.7898,15.99,12.65,47.84626,-54.09684
2020-10-02 06:59:01+00:00,211.1531,15.98,12.65,47.84626,-54.09684
2020-10-02 07:09:01+00:00,219.6714,15.3,12.65,47.84626,-54.09684
2020-10-02 07:19:01+00:00,223.5131,15.24,12.65,47.84626,-54.09684
2020-10-02 07:29:01+00:00,223.7964,15.46,12.65,47.84626,-54.09684
2020-10-02 07:39:01+00:00,226.6681,15.4,12.65,47.84626,-54.09684
2020-10-02 07:49:01+00:00,235.2848,15.18,12.65,47.84626,-54.09684
2020-10-02 07:59:01+00:00,240.4814,15.2,12.65,47.84626,-54.09684
2020-10-02 08:09:01+00:00,241.1564,15.2,12.65,47.84626,-54.09684
2020-10-02 08:19:01+00:00,244.3647,15.2,12.57,47.84626,-54.09684
2020-10-02 08:29:01+00:00,251.9381,15.2,12.57,47.84626,-54.09684
2020-10-02 08:39:01+00:00,254.3081,15.2,12.57,47.84626,-54.09684
2020-10-02 08:49:01+00:00,255.9631,15.2,12.57,47.84626,-54.09684
2020-10-02 08:59:01+00:00,264.7081,15.1,12.57,47.84626,-54.09684
2020-10-02 09:09:01+00:00,274.9563,14.8,12.57,47.84626,-54.09684
2020-10-02 09:19:01+00:00,277.1447,14.8,12.57,47.84626,-54.09684
2020-10-02 09:29:01+00:00,281.7314,14.8,12.57,47.84626,-54.09684
2020-10-02 09:39:01+00:00,289.1964,14.8,12.57,47.84626,-54.09684
2020-10-02 09:49:01+00:00,297.8615,14.7,12.57,47.84626,-54.09684
2020-10-02 09:59:01+00:00,301.3947,14.64,12.57,47.84626,-54.09684
2020-10-02 10:09:01+00:00,308.9713,14.7,12.57,47.84626,-54.09684
2020-10-02 10:19:01+00:00,317.21299999999997,14.7,12.57,47.84626,-54.09684
2020-10-02 10:29:01+00:00,326.1246,14.6,12.57,47.84626,-54.09684
2020-10-02 10:39:01+00:00,331.5113,14.59,12.57,47.84626,-54.09684
2020-10-02 10:49:01+00:00,335.3613,14.5,12.57,47.84626,-54.09684
2020-10-02 10:59:01+00:00,342.2613,14.49,12.57,47.84626,-54.09684
2020-10-02 11:09:01+00:00,347.728,14.4,12.57,47.84626,-54.09684
2020-10-02 11:19:01+00:00,348.9713,14.4,12.65,47.84626,-54.09684
2020-10-02 11:29:01+00:00,351.6029,14.4,12.65,47.84626,-54.09684
2020-10-02 11:39:01+00:00,354.2663,14.4,12.65,47.84626,-54.09684
2020-10-02 11:49:01+00:00,355.1579,14.4,12.65,47.84626,-54.09684
2020-10-02 11:59:01+00:00,353.283,14.4,12.65,47.84626,-54.09684
2020-10-02 12:09:01+00:00,351.9563,14.4,12.65,47.84626,-54.09684
2020-10-02 12:19:01+00:00,352.6863,14.4,13.05,47.84626,-54.09684
2020-10-02 12:29:01+00:00,353.9297,14.4,13.05,47.84626,-54.09684
2020-10-02 12:39:01+00:00,351.9396,14.39,13.05,47.84626,-54.09684
2020-10-02 12:49:01+00:00,349.67800000000005,14.39,13.05,47.84626,-54.09684
2020-10-02 12:59:01+00:00,348.9929,14.4,13.05,47.84626,-54.09684
2020-10-02 13:09:01+00:00,349.398,14.4,13.05,47.84626,-54.09684
2020-10-02 13:19:01+00:00,342.093,14.41,13.21,47.84626,-54.09684
2020-10-02 13:29:01+00:00,335.858,14.42,13.21,47.84626,-54.09684
2020-10-02 13:39:01+00:00,333.7297,14.41,13.21,47.84626,-54.09684
2020-10-02 13:49:01+00:00,330.9613,14.41,13.21,47.84626,-54.09684
2020-10-02 13:59:01+00:00,323.1913,14.41,13.21,47.84626,-54.09684
2020-10-02 14:09:01+00:00,317.1064,14.45,13.21,47.84626,-54.09684
2020-10-02 14:19:01+00:00,312.7513,14.48,13.21,47.84626,-54.09684
2020-10-02 14:29:01+00:00,304.9763,14.5,13.21,47.84626,-54.09684
2020-10-02 14:39:01+00:00,296.1547,14.5,13.21,47.84626,-54.09684
2020-10-02 14:49:01+00:00,292.0347,14.5,13.21,47.84626,-54.09684
2020-10-02 14:59:01+00:00,285.4914,14.5,13.21,47.84626,-54.09684
2020-10-02 15:09:01+00:00,272.3297,14.59,13.21,47.84626,-54.09684
2020-10-02 15:19:01+00:00,262.4564,14.6,13.6,47.84626,-54.09684
2020-10-02 15:29:01+00:00,260.0714,14.62,13.6,47.84626,-54.09684
2020-10-02 15:39:01+00:00,253.7014,14.69,13.6,47.84626,-54.09684
2020-10-02 15:49:01+00:00,237.3448,14.7,13.6,47.84626,-54.09684
2020-10-02 15:59:01+00:00,227.9831,14.79,13.6,47.84626,-54.09684
2020-10-02 16:09:01+00:00,224.8081,14.71,13.6,47.84626,-54.09684
2020-10-02 16:19:01+00:00,216.3131,14.82,13.29,47.84626,-54.09684
2020-10-02 16:29:01+00:00,208.4214,14.9,13.29,47.84626,-54.09684
2020-10-02 16:39:01+00:00,206.9498,14.8,13.29,47.84626,-54.09684
2020-10-02 16:49:01+00:00,201.4865,14.82,13.29,47.84626,-54.09684
2020-10-02 16:59:01+00:00,190.6915,14.9,13.29,47.84626,-54.09684
2020-10-02 17:09:01+00:00,186.7681,14.9,13.29,47.84626,-54.09684
2020-10-02 17:19:01+00:00,184.9448,14.9,13.21,47.84626,-54.09684
2020-10-02 17:29:01+00:00,178.9448,14.94,13.21,47.84626,-54.09684
2020-10-02 17:39:01+00:00,176.7215,14.9,13.21,47.84626,-54.09684
2020-10-02 17:49:01+00:00,175.9765,14.8,13.21,47.84626,-54.09684
2020-10-02 17:59:01+00:00,175.1248,14.8,13.21,47.84626,-54.09684
2020-10-02 18:09:01+00:00,174.2432,14.8,13.21,47.84626,-54.09684
2020-10-02 18:19:01+00:00,174.0865,14.8,13.21,47.84626,-54.09684
2020-10-02 18:29:01+00:00,179.3647,14.8,13.21,47.84626,-54.09684
2020-10-02 18:39:01+00:00,183.5498,14.8,13.21,47.84626,-54.09684
2020-10-02 18:49:01+00:00,181.2015,14.8,13.21,47.84626,-54.09684
2020-10-02 18:59:01+00:00,186.3315,14.8,13.21,47.84626,-54.09684
2020-10-02 19:09:01+00:00,190.8581,14.82,13.21,47.84626,-54.09684
2020-10-02 19:19:01+00:00,192.4898,14.89,13.21,47.84626,-54.09684
2020-10-02 19:29:01+00:00,195.7748,14.8,13.21,47.84626,-54.09684
2020-10-02 19:39:01+00:00,198.6348,14.8,13.21,47.84626,-54.09684
2020-10-02 19:49:01+00:00,206.0298,14.79,13.21,47.84626,-54.09684
2020-10-02 19:59:01+00:00,213.8564,14.7,13.21,47.84626,-54.09684
2020-10-02 20:09:01+00:00,221.4181,14.7,13.21,47.84626,-54.09684
2020-10-02 20:19:01+00:00,227.2397,14.7,13.05,47.84626,-54.09684
2020-10-02 20:29:01+00:00,232.5181,14.66,13.05,47.84626,-54.09684
2020-10-02 20:39:01+00:00,237.1049,14.7,13.05,47.84626,-54.09684
2020-10-02 20:49:01+00:00,242.9648,14.7,13.05,47.84626,-54.09684
2020-10-02 20:59:01+00:00,246.5547,14.76,13.05,47.84626,-54.09684
2020-10-02 21:09:01+00:00,250.8681,14.78,13.05,47.84626,-54.09684
2020-10-02 21:19:01+00:00,255.6564,14.7,12.89,47.84626,-54.09684
2020-10-02 21:29:01+00:00,260.9298,14.7,12.89,47.84626,-54.09684
2020-10-02 21:39:01+00:00,267.3448,14.7,12.89,47.84626,-54.09684
2020-10-02 21:49:01+00:00,273.4097,14.7,12.89,47.84626,-54.09684
2020-10-02 21:59:01+00:00,278.6531,14.75,12.89,47.84626,-54.09684
2020-10-02 22:09:01+00:00,283.8064,14.6,12.89,47.84626,-54.09684
2020-10-02 22:19:01+00:00,293.0197,14.63,12.89,47.84626,-54.09684
2020-10-02 22:29:01+00:00,300.9097,14.7,12.89,47.84626,-54.09684
2020-10-02 22:39:01+00:00,303.753,14.6,12.89,47.84626,-54.09684
2020-10-02 22:49:01+00:00,311.0413,14.57,12.89,47.84626,-54.09684
2020-10-02 22:59:01+00:00,323.543,14.5,12.89,47.84626,-54.09684
2020-10-02 23:09:01+00:00,332.3396,14.4,12.89,47.84626,-54.09684
2020-10-02 23:19:01+00:00,335.5513,14.4,12.81,47.84626,-54.09684
2020-10-02 23:29:01+00:00,345.423,14.4,12.81,47.84626,-54.09684
2020-10-02 23:39:01+00:00,354.5779,14.4,12.81,47.84626,-54.09684
2020-10-02 23:49:01+00:00,354.2447,14.4,12.81,47.84626,-54.09684
2020-10-02 23:59:01+00:00,353.5529,14.4,12.81,47.84626,-54.09684
